Mackinac Island, MI

6:06 AM EDT on March 25, 2017 (GMT -0400)
Mackinac Island

Weather History for KMCD - January, 2014

Change the Weather History Date:

Friday, January 10, 2014

  Actual Average Record
Temperature  
Mean Temperature 24 °F -  
Max Temperature 32 °F 23 °F 39 °F (1983)
Min Temperature 15 °F 13 °F -21 °F (1982)
Degree Days  
Heating Degree Days 42    
Moisture  
Dew Point 22 °F    
Average Humidity 90    
Maximum Humidity 100    
Minimum Humidity 75    
Precipitation  
Precipitation 0.16 in - - ()
Sea Level Pressure  
Sea Level Pressure 29.92 in    
Wind  
Wind Speed 9 mph (SSE)    
Max Wind Speed 12 mph    
Max Gust Speed 22 mph    
Visibility 6 miles    
Events Snow    
Averages and records for this station are not official NWS values.
T = Trace of Precipitation, MM = Missing Value Source: NWS Daily Summary

Daily Weather History Graph

Daily Weather History Graph

Search for Another Location

Airport or City:

Trip Planner

Search our weather history database for the weather conditions in past years. The results will help you decide how hot, cold, wet, or windy it might be!

Date:

Astronomy

Jan. 10, 2014 Rise Set
Actual Time 8:18 AM EST 5:14 PM EST
Civil Twilight 7:44 AM EST 5:47 PM EST
Nautical Twilight 7:07 AM EST 6:25 PM EST
Astronomical Twilight 6:31 AM EST 7:01 PM EST
Moon 1:21 PM EST (1/10) 3:19 AM EST (1/10)
Length of Visible Light 10h 03m
Length of Day
8h 55m
Waxing Gibbous, 75% of the Moon is Illuminated
Jan 10
Waxing Gibbous
Jan 15
Full
Jan 24
Last Quarter
Jan 30
New
Feb 6
First Quarter

Hourly Weather History & Observations

Time (EST) Temp. Windchill Dew Point Humidity Pressure Visibility Wind Dir Wind Speed Gust Speed Precip Events Conditions
12:15 AM 16.2 °F 4.7 °F 9.5 °F 75% 30.17 in 10.0 mi South 9.2 mph 16.1 mph N/A   Overcast
12:29 AM 15.8 °F 5.1 °F 9.3 °F 76% 30.16 in 10.0 mi South 8.1 mph - N/A   Overcast
1:45 AM 15.8 °F 4.2 °F 10.4 °F 79% 30.12 in 10.0 mi SSE 9.2 mph 18.4 mph N/A   Overcast
3:01 AM 16.7 °F 3.8 °F 11.7 °F 81% 30.12 in 10.0 mi SSE 11.5 mph 17.3 mph N/A   Overcast
3:16 AM 16.3 °F 3.4 °F 11.5 °F 81% 30.11 in 10.0 mi SSE 11.5 mph 16.1 mph N/A   Overcast
3:35 AM 15.8 °F 4.2 °F 11.3 °F 82% 30.10 in 10.0 mi SSE 9.2 mph - N/A   Overcast
3:56 AM 16.5 °F 3.6 °F 12.2 °F 83% 30.09 in 10.0 mi SSE 11.5 mph 16.1 mph N/A   Overcast
4:15 AM 16.7 °F 3.8 °F 12.6 °F 84% 30.09 in 10.0 mi SSE 11.5 mph 16.1 mph N/A   Overcast
4:35 AM 17.1 °F 5.8 °F 12.9 °F 84% 30.08 in 10.0 mi SSE 9.2 mph 17.3 mph N/A   Overcast
4:56 AM 17.1 °F 5.8 °F 13.1 °F 84% 30.08 in 10.0 mi South 9.2 mph - N/A   Overcast
5:15 AM 17.1 °F 5.0 °F 13.1 °F 84% 30.06 in 10.0 mi SSE 10.4 mph - N/A   Overcast
5:35 AM 17.4 °F 6.2 °F 13.6 °F 85% 30.06 in 10.0 mi South 9.2 mph - N/A   Overcast
5:56 AM 17.4 °F 4.7 °F 13.8 °F 86% 30.06 in 10.0 mi South 11.5 mph - N/A   Overcast
6:15 AM 17.6 °F 5.7 °F 14.0 °F 86% 30.06 in 10.0 mi SSE 10.4 mph - N/A   Overcast
6:35 AM 18.0 °F 6.1 °F 14.5 °F 86% 30.05 in 10.0 mi SSE 10.4 mph - N/A   Overcast
6:56 AM 18.3 °F 7.3 °F 14.9 °F 86% 30.05 in 10.0 mi SSE 9.2 mph - N/A   Overcast
7:15 AM 18.9 °F 8.0 °F 15.8 °F 88% 30.05 in 10.0 mi SSE 9.2 mph - N/A   Overcast
7:35 AM 19.4 °F 11.5 °F 16.5 °F 89% 30.04 in 10.0 mi South 5.8 mph - N/A   Overcast
7:56 AM 19.8 °F 10.8 °F 16.7 °F 88% 30.04 in 10.0 mi SSE 6.9 mph - N/A   Overcast
8:15 AM 20.3 °F 11.5 °F 17.6 °F 89% 30.04 in 10.0 mi SSE 6.9 mph - N/A   Overcast
8:36 AM 20.7 °F 11.0 °F 18.1 °F 90% 30.03 in 10.0 mi South 8.1 mph - N/A   Overcast
8:55 AM 21.0 °F 10.6 °F 18.5 °F 90% 30.04 in 10.0 mi SSE 9.2 mph 16.1 mph N/A   Overcast
9:16 AM 21.6 °F 13.0 °F 19.2 °F 91% 30.03 in 7.0 mi SSE 6.9 mph - N/A   Overcast
9:36 AM 21.7 °F 11.5 °F 19.4 °F 91% 30.03 in 7.0 mi SSE 9.2 mph - N/A   Overcast
9:55 AM 22.1 °F 12.8 °F 19.8 °F 91% 30.03 in 7.0 mi SSE 8.1 mph 16.1 mph N/A   Overcast
10:15 AM 22.1 °F 12.8 °F 20.3 °F 93% 30.02 in 5.0 mi SSE 8.1 mph - N/A   Overcast
10:36 AM 22.6 °F 13.4 °F 21.2 °F 94% 30.02 in 4.0 mi SSE 8.1 mph - N/A   Overcast
10:55 AM 23.0 °F 13.1 °F 22.1 °F 96% 30.02 in 3.0 mi SSE 9.2 mph - N/A   Overcast
11:15 AM 23.0 °F 12.4 °F 21.7 °F 95% 30.02 in 4.0 mi SSE 10.4 mph 16.1 mph N/A   Overcast
11:36 AM 23.5 °F 12.4 °F 22.5 °F 96% 30.01 in 3.0 mi SSE 11.5 mph - N/A   Overcast
11:55 AM 23.9 °F 15.8 °F 22.5 °F 94% 30.00 in 4.0 mi SSE 6.9 mph - N/A   Overcast
12:15 PM 24.3 °F 14.6 °F 23.0 °F 95% 29.99 in 3.0 mi SSE 9.2 mph - N/A   Overcast
12:35 PM 24.8 °F 15.3 °F 23.5 °F 95% 29.97 in 3.0 mi SSE 9.2 mph 16.1 mph N/A   Overcast
12:55 PM 25.5 °F 17.8 °F 23.9 °F 94% 29.96 in 3.0 mi SSE 6.9 mph - N/A   Overcast
1:15 PM 25.7 °F 16.4 °F 24.6 °F 96% 29.94 in 3.0 mi SSE 9.2 mph - N/A   Overcast
1:35 PM 26.2 °F 16.4 °F 24.8 °F 94% 29.93 in 3.0 mi SSE 10.4 mph - N/A   Overcast
1:56 PM 26.6 °F 16.8 °F 24.8 °F 93% 29.92 in 4.0 mi SSE 10.4 mph - N/A   Overcast
2:15 PM 27.5 °F 18.0 °F 25.5 °F 92% 29.91 in 4.0 mi SSE 10.4 mph 16.1 mph N/A   Overcast
2:36 PM 27.9 °F 20.6 °F 25.7 °F 92% 29.90 in 4.0 mi SSE 6.9 mph - N/A   Overcast
2:55 PM 28.4 °F 19.7 °F 26.1 °F 91% 29.88 in 4.0 mi SSE 9.2 mph - N/A   Overcast
3:15 PM 28.8 °F 20.2 °F 26.1 °F 90% 29.88 in 5.0 mi SSE 9.2 mph - N/A   Overcast
3:36 PM 29.3 °F 22.3 °F 26.2 °F 88% 29.88 in 5.0 mi SE 6.9 mph - N/A   Overcast
3:55 PM 29.3 °F 25.6 °F 26.2 °F 88% 29.87 in 5.0 mi SE 3.5 mph - N/A   Overcast
4:15 PM 29.3 °F 24.3 °F 26.2 °F 88% 29.87 in 5.0 mi SSE 4.6 mph - N/A   Overcast
4:36 PM 29.1 °F 24.1 °F 26.4 °F 90% 29.86 in 5.0 mi SE 4.6 mph - N/A   Overcast
4:55 PM 29.3 °F 20.2 °F 26.6 °F 90% 29.88 in 5.0 mi SSE 10.4 mph - N/A   Overcast
5:15 PM 29.3 °F 20.2 °F 27.0 °F 91% 29.87 in 7.0 mi South 10.4 mph 16.1 mph N/A   Overcast
5:35 PM 29.3 °F 22.3 °F 27.0 °F 91% 29.85 in 7.0 mi SSE 6.9 mph - N/A   Overcast
5:56 PM 29.3 °F 20.8 °F 27.1 °F 92% 29.84 in 7.0 mi SSE 9.2 mph - N/A   Overcast
6:15 PM 29.3 °F 22.3 °F 27.1 °F 92% 29.82 in 7.0 mi SE 6.9 mph - N/A   Overcast
6:35 PM 29.3 °F 22.3 °F 27.3 °F 92% 29.81 in 7.0 mi ESE 6.9 mph - N/A   Overcast
6:55 PM 29.7 °F 22.0 °F 27.3 °F 91% 29.81 in 7.0 mi SE 8.1 mph - N/A   Overcast
7:15 PM 29.8 °F 23.0 °F 27.3 °F 90% 29.80 in 7.0 mi SE 6.9 mph - N/A   Overcast
7:36 PM 29.8 °F 23.0 °F 27.3 °F 90% 29.78 in 7.0 mi ESE 6.9 mph - N/A   Overcast
7:55 PM 29.8 °F 22.2 °F 27.1 °F 90% 29.77 in 10.0 mi ESE 8.1 mph - N/A   Overcast
8:15 PM 30.0 °F 22.4 °F 27.5 °F 90% 29.75 in 5.0 mi SE 8.1 mph - N/A   Overcast
8:35 PM 29.8 °F 21.5 °F 28.8 °F 96% 29.73 in 5.0 mi SE 9.2 mph 17.3 mph N/A   Overcast
8:55 PM 30.0 °F 21.1 °F 29.1 °F 96% 29.71 in 7.0 mi ESE 10.4 mph 16.1 mph N/A   Overcast
9:16 PM 30.0 °F 21.1 °F 28.8 °F 95% 29.69 in 7.0 mi ESE 10.4 mph 16.1 mph N/A   Overcast
9:35 PM 30.2 °F 21.9 °F 29.3 °F 96% 29.68 in 5.0 mi ESE 9.2 mph 17.3 mph N/A Snow Light Snow
9:55 PM 30.4 °F 22.9 °F 29.8 °F 98% 29.65 in 4.0 mi ESE 8.1 mph - N/A Snow Light Snow
10:16 PM 30.6 °F 23.1 °F 30.4 °F 99% 29.63 in 3.0 mi ESE 8.1 mph - N/A   Overcast
10:35 PM 30.9 °F 22.8 °F 30.9 °F 100% 29.61 in 3.0 mi East 9.2 mph - 0.01 in   Overcast
10:55 PM 31.1 °F 23.7 °F 31.1 °F 100% 29.59 in 2.5 mi East 8.1 mph - 0.02 in Snow Light Snow
11:16 PM 31.6 °F 24.4 °F 31.6 °F 100% 29.57 in 2.0 mi ESE 8.1 mph 21.9 mph 0.02 in Snow Light Snow
11:35 PM 32.0 °F 24.2 °F 32.0 °F 100% 29.56 in 1.8 mi East 9.2 mph 17.3 mph 0.09 in Snow Light Snow
11:56 PM 32.0 °F 26.4 °F 32.0 °F 100% 29.54 in 2.0 mi East 5.8 mph - 0.14 in Snow Light Snow